Location: Costa Valle Imagna
(45.8000°N, 9.5000°E)
Time: 04:33:55
(UTC+00:00)

Cosmos 1943 - Pass Details

Date: 17 February 2020
Orbit: 832 x 851 km, 71.0° (Epoch: 02 April)

Event Time Altitude Azimuth Distance (km) Brightness Sun altitude
Rises 04:58:52 0° 201° (SSW) 3,363 6.1 -15.1°
Reaches altitude 10° 05:01:17 10° 200° (SSW) 2,434 5.4 -14.7°
Maximum altitude 05:06:52 80° 115° (ESE) 851 3.3 -13.8°
Drops below altitude 10° 05:12:30 10° 28° (NNE) 2,459 5.9 -12.8°
Sets 05:14:58 0° 28° (NNE) 3,400 6.7 -12.3°
